Time,TemperatureF,DewpointF,PressureIn,WindDirection,WindDirectionDegrees,WindSpeedMPH,WindSpeedGustMPH,Humidity,HourlyPrecipIn,Conditions,Clouds,dailyrainin,SoftwareType,DateUTC
2013-05-29 00:15:00,60.4,51.3,29.68,ESE,112,2.2,-999.0,72,-99.99,,,0.00,Acu-Link.com,2013-05-29 07:15:00,
2013-05-29 00:30:00,60.4,51.3,29.68,NW,315,3.2,-999.0,72,-99.99,,,0.00,Acu-Link.com,2013-05-29 07:30:00,
2013-05-29 00:45:00,60.3,51.2,29.67,West,270,4.2,-999.0,72,-99.99,,,0.00,Acu-Link.com,2013-05-29 07:45:00,
2013-05-29 01:01:00,60.3,51.2,29.68,West,270,1.7,-999.0,72,-99.99,,,0.00,Acu-Link.com,2013-05-29 08:01:00,
2013-05-29 01:17:00,60.1,51.0,29.67,NW,315,1.1,-999.0,72,-99.99,,,0.00,Acu-Link.com,2013-05-29 08:17:00,
2013-05-29 01:32:00,59.9,50.8,29.67,WNW,292,2.7,-999.0,72,-99.99,,,0.00,Acu-Link.com,2013-05-29 08:32:00,
2013-05-29 01:48:00,59.7,50.7,29.68,NNW,337,2.7,-999.0,72,-99.99,,,0.00,Acu-Link.com,2013-05-29 08:48:00,
2013-05-29 02:03:00,59.7,50.7,29.67,NNE,22,2.2,-999.0,72,-99.99,,,0.00,Acu-Link.com,2013-05-29 09:03:00,
2013-05-29 02:18:00,59.0,50.7,29.67,NW,315,0.0,-999.0,74,-99.99,,,0.00,Acu-Link.com,2013-05-29 09:18:00,
2013-05-29 02:33:00,58.6,50.3,29.67,SSW,202,0.0,-999.0,74,-99.99,,,0.00,Acu-Link.com,2013-05-29 09:33:00,
2013-05-29 02:48:00,58.6,50.3,29.67,NW,315,2.2,-999.0,74,-99.99,,,0.00,Acu-Link.com,2013-05-29 09:48:00,
2013-05-29 03:03:00,58.1,49.9,29.68,West,270,3.2,-999.0,74,-99.99,,,0.00,Acu-Link.com,2013-05-29 10:03:00,
2013-05-29 03:19:00,58.1,50.2,29.68,NNW,337,4.2,-999.0,75,-99.99,,,0.00,Acu-Link.com,2013-05-29 10:19:00,
2013-05-29 03:34:00,58.3,50.0,29.67,SE,135,2.7,-999.0,74,-99.99,,,0.00,Acu-Link.com,2013-05-29 10:34:00,
2013-05-29 03:49:00,58.8,49.8,29.66,NW,315,1.7,-999.0,72,-99.99,,,0.00,Acu-Link.com,2013-05-29 10:49:00,
2013-05-29 04:05:00,59.0,50.0,29.67,WNW,292,3.7,-999.0,72,-99.99,,,0.00,Acu-Link.com,2013-05-29 11:05:00,
2013-05-29 04:20:00,58.1,49.9,29.66,SE,135,3.2,-999.0,74,-99.99,,,0.00,Acu-Link.com,2013-05-29 11:20:00,
2013-05-29 04:35:00,57.7,49.8,29.67,NNW,337,3.7,-999.0,75,-99.99,,,0.00,Acu-Link.com,2013-05-29 11:35:00,
2013-05-29 04:51:00,57.0,49.5,29.67,NE,45,3.7,-999.0,76,-99.99,,,0.00,Acu-Link.com,2013-05-29 11:51:00,
2013-05-29 05:06:00,56.7,49.2,29.68,NE,45,1.1,-999.0,76,-99.99,,,0.00,Acu-Link.com,2013-05-29 12:06:00,
2013-05-29 05:21:00,56.3,48.8,29.67,NNE,22,0.0,-999.0,76,-99.99,,,0.00,Acu-Link.com,2013-05-29 12:21:00,
2013-05-29 05:36:00,56.1,49.0,29.68,West,270,2.2,-999.0,77,-99.99,,,0.00,Acu-Link.com,2013-05-29 12:36:00,
2013-05-29 05:52:00,56.1,49.3,29.67,South,180,0.0,-999.0,78,-99.99,,,0.00,Acu-Link.com,2013-05-29 12:52:00,
2013-05-29 06:07:00,55.8,49.0,29.68,WSW,247,2.7,-999.0,78,-99.99,,,0.00,Acu-Link.com,2013-05-29 13:07:00,
2013-05-29 06:22:00,56.3,49.5,29.68,West,270,4.2,-999.0,78,-99.99,,,0.00,Acu-Link.com,2013-05-29 13:22:00,
2013-05-29 06:37:00,57.0,49.5,29.68,SW,225,1.7,-999.0,76,-99.99,,,0.00,Acu-Link.com,2013-05-29 13:37:00,
2013-05-29 06:52:00,57.6,50.1,29.68,NW,315,1.7,-999.0,76,-99.99,,,0.00,Acu-Link.com,2013-05-29 13:52:00,
2013-05-29 07:08:00,59.0,50.7,29.69,West,270,4.2,-999.0,74,-99.99,,,0.00,Acu-Link.com,2013-05-29 14:08:00,
2013-05-29 07:23:00,60.8,51.0,29.70,South,180,3.7,-999.0,70,-99.99,,,0.00,Acu-Link.com,2013-05-29 14:23:00,
2013-05-29 07:38:00,62.2,51.9,29.70,WNW,292,3.2,-999.0,69,-99.99,,,0.00,Acu-Link.com,2013-05-29 14:38:00,
2013-05-29 07:53:00,63.1,52.4,29.70,South,180,2.2,-999.0,68,-99.99,,,0.00,Acu-Link.com,2013-05-29 14:53:00,
2013-05-29 08:08:00,63.3,52.6,29.70,West,270,4.2,-999.0,68,-99.99,,,0.00,Acu-Link.com,2013-05-29 15:08:00,
2013-05-29 08:23:00,64.6,53.8,29.70,WNW,292,4.2,-999.0,68,-99.99,,,0.00,Acu-Link.com,2013-05-29 15:23:00,
2013-05-29 08:39:00,65.5,53.4,29.71,West,270,3.7,-999.0,65,-99.99,,,0.00,Acu-Link.com,2013-05-29 15:39:00,
2013-05-29 08:54:00,66.2,54.1,29.71,WSW,247,4.2,-999.0,65,-99.99,,,0.00,Acu-Link.com,2013-05-29 15:54:00,
2013-05-29 09:09:00,66.9,53.9,29.70,WSW,247,3.7,-999.0,63,-99.99,,,0.00,Acu-Link.com,2013-05-29 16:09:00,
2013-05-29 09:24:00,67.6,54.5,29.70,West,270,2.2,-999.0,63,-99.99,,,0.00,Acu-Link.com,2013-05-29 16:24:00,
2013-05-29 09:39:00,69.3,56.2,29.71,NW,315,3.2,-999.0,63,-99.99,,,0.00,Acu-Link.com,2013-05-29 16:39:00,
2013-05-29 09:55:00,72.1,56.0,29.71,West,270,2.2,-999.0,57,-99.99,,,0.00,Acu-Link.com,2013-05-29 16:55:00,
2013-05-29 10:10:00,69.6,54.2,29.70,East,90,4.2,-999.0,58,-99.99,,,0.00,Acu-Link.com,2013-05-29 17:10:00,
2013-05-29 10:25:00,72.3,55.7,29.70,East,90,2.7,-999.0,56,-99.99,,,0.00,Acu-Link.com,2013-05-29 17:25:00,
2013-05-29 10:40:00,71.6,56.5,29.70,NW,315,2.2,-999.0,59,-99.99,,,0.00,Acu-Link.com,2013-05-29 17:40:00,
2013-05-29 10:55:00,72.5,55.9,29.70,ENE,67,6.3,-999.0,56,-99.99,,,0.00,Acu-Link.com,2013-05-29 17:55:00,
2013-05-29 11:10:00,73.0,55.9,29.70,West,270,5.3,-999.0,55,-99.99,,,0.00,Acu-Link.com,2013-05-29 18:10:00,
2013-05-29 11:26:00,73.0,55.9,29.69,NE,45,2.2,-999.0,55,-99.99,,,0.00,Acu-Link.com,2013-05-29 18:26:00,
2013-05-29 11:41:00,74.7,55.9,29.69,SSW,202,6.3,-999.0,52,-99.99,,,0.00,Acu-Link.com,2013-05-29 18:41:00,
2013-05-29 11:56:00,75.6,55.6,29.69,West,270,4.7,-999.0,50,-99.99,,,0.00,Acu-Link.com,2013-05-29 18:56:00,
2013-05-29 12:11:00,76.1,55.5,29.69,SW,225,4.2,-999.0,49,-99.99,,,0.00,Acu-Link.com,2013-05-29 19:11:00,
2013-05-29 12:27:00,76.6,56.0,29.69,West,270,3.2,-999.0,49,-99.99,,,0.00,Acu-Link.com,2013-05-29 19:27:00,
2013-05-29 12:42:00,75.9,56.5,29.69,WNW,292,4.2,-999.0,51,-99.99,,,0.00,Acu-Link.com,2013-05-29 19:42:00,
2013-05-29 12:57:00,76.5,55.3,29.69,SW,225,3.2,-999.0,48,-99.99,,,0.00,Acu-Link.com,2013-05-29 19:57:00,
2013-05-29 13:13:00,77.0,55.8,29.68,East,90,1.7,-999.0,48,-99.99,,,0.00,Acu-Link.com,2013-05-29 20:13:00,
2013-05-29 13:28:00,76.8,55.0,29.67,North,0,5.3,-999.0,47,-99.99,,,0.00,Acu-Link.com,2013-05-29 20:28:00,
2013-05-29 13:43:00,78.1,56.2,29.67,NE,45,4.2,-999.0,47,-99.99,,,0.00,Acu-Link.com,2013-05-29 20:43:00,
2013-05-29 13:58:00,78.8,56.2,29.66,West,270,3.2,-999.0,46,-99.99,,,0.00,Acu-Link.com,2013-05-29 20:58:00,
2013-05-29 14:13:00,78.8,55.0,29.67,SSE,157,3.2,-999.0,44,-99.99,,,0.00,Acu-Link.com,2013-05-29 21:13:00,
2013-05-29 14:29:00,78.1,56.8,29.66,WNW,292,4.7,-999.0,48,-99.99,,,0.00,Acu-Link.com,2013-05-29 21:29:00,
2013-05-29 14:44:00,77.2,56.5,29.66,NW,315,5.3,-999.0,49,-99.99,,,0.00,Acu-Link.com,2013-05-29 21:44:00,
2013-05-29 14:59:00,77.9,56.0,29.66,South,180,5.8,-999.0,47,-99.99,,,0.00,Acu-Link.com,2013-05-29 21:59:00,
2013-05-29 15:14:00,78.6,56.1,29.66,North,0,3.7,-999.0,46,-99.99,,,0.00,Acu-Link.com,2013-05-29 22:14:00,
2013-05-29 15:30:00,78.1,56.2,29.65,South,180,3.7,-999.0,47,-99.99,,,0.00,Acu-Link.com,2013-05-29 22:30:00,
2013-05-29 15:45:00,76.8,56.2,29.65,NNW,337,4.7,-999.0,49,-99.99,,,0.00,Acu-Link.com,2013-05-29 22:45:00,
2013-05-29 16:00:00,77.4,56.7,29.65,NNW,337,4.7,-999.0,49,-99.99,,,0.00,Acu-Link.com,2013-05-29 23:00:00,
2013-05-29 16:15:00,77.0,55.2,29.64,SSE,157,4.2,-999.0,47,-99.99,,,0.00,Acu-Link.com,2013-05-29 23:15:00,
2013-05-29 16:30:00,77.7,54.6,29.64,SSW,202,2.7,-999.0,45,-99.99,,,0.00,Acu-Link.com,2013-05-29 23:30:00,
2013-05-29 16:46:00,77.4,53.8,29.64,WNW,292,5.3,-999.0,44,-99.99,,,0.00,Acu-Link.com,2013-05-29 23:46:00,
2013-05-29 17:01:00,77.7,54.6,29.64,SSW,202,4.2,-999.0,45,-99.99,,,0.00,Acu-Link.com,2013-05-30 00:01:00,
2013-05-29 17:16:00,77.7,54.0,29.64,WNW,292,6.3,-999.0,44,-99.99,,,0.00,Acu-Link.com,2013-05-30 00:16:00,
2013-05-29 17:31:00,77.9,53.6,29.64,SW,225,2.2,-999.0,43,-99.99,,,0.00,Acu-Link.com,2013-05-30 00:31:00,
2013-05-29 17:46:00,76.8,53.2,29.64,NE,45,3.7,-999.0,44,-99.99,,,0.00,Acu-Link.com,2013-05-30 00:46:00,
2013-05-29 18:17:00,75.9,52.4,29.64,ESE,112,1.7,-999.0,44,-99.99,,,0.00,Acu-Link.com,2013-05-30 01:17:00,
2013-05-29 18:32:00,76.8,52.6,29.64,SE,135,2.7,-999.0,43,-99.99,,,0.00,Acu-Link.com,2013-05-30 01:32:00,
2013-05-29 18:47:00,75.4,52.6,29.63,NNW,337,2.2,-999.0,45,-99.99,,,0.00,Acu-Link.com,2013-05-30 01:47:00,
2013-05-29 19:03:00,72.9,53.2,29.63,ESE,112,1.7,-999.0,50,-99.99,,,0.00,Acu-Link.com,2013-05-30 02:03:00,
2013-05-29 19:18:00,69.3,53.4,29.63,SE,135,2.2,-999.0,57,-99.99,,,0.00,Acu-Link.com,2013-05-30 02:18:00,
2013-05-29 19:33:00,68.0,52.2,29.63,NW,315,0.0,-999.0,57,-99.99,,,0.00,Acu-Link.com,2013-05-30 02:33:00,
2013-05-29 19:48:00,64.6,53.0,29.63,SSW,202,0.0,-999.0,66,-99.99,,,0.00,Acu-Link.com,2013-05-30 02:48:00,
2013-05-29 20:04:00,64.8,51.9,29.64,SW,225,0.0,-999.0,63,-99.99,,,0.00,Acu-Link.com,2013-05-30 03:04:00,
2013-05-29 20:19:00,62.4,54.0,29.64,West,270,1.1,-999.0,74,-99.99,,,0.01,Acu-Link.com,2013-05-30 03:19:00,
2013-05-29 20:34:00,62.1,51.8,29.64,West,270,0.0,-999.0,69,-99.99,,,0.01,Acu-Link.com,2013-05-30 03:34:00,
2013-05-29 20:49:00,61.2,51.7,29.65,NNE,22,2.2,-999.0,71,-99.99,,,0.02,Acu-Link.com,2013-05-30 03:49:00,
2013-05-29 21:05:00,61.3,50.2,29.65,NW,315,1.7,-999.0,67,-99.99,,,0.02,Acu-Link.com,2013-05-30 04:05:00,
2013-05-29 21:20:00,60.8,50.6,29.66,NNW,337,2.7,-999.0,69,-99.99,,,0.02,Acu-Link.com,2013-05-30 04:20:00,
2013-05-29 21:35:00,60.4,50.2,29.66,West,270,2.2,-999.0,69,-99.99,,,0.02,Acu-Link.com,2013-05-30 04:35:00,
2013-05-29 21:51:00,59.5,50.1,29.67,WSW,247,1.7,-999.0,71,-99.99,,,0.02,Acu-Link.com,2013-05-30 04:51:00,
2013-05-29 22:06:00,59.5,49.7,29.67,NE,45,0.0,-999.0,70,-99.99,,,0.02,Acu-Link.com,2013-05-30 05:06:00,
2013-05-29 22:21:00,58.3,49.3,29.68,SSW,202,0.0,-999.0,72,-99.99,,,0.02,Acu-Link.com,2013-05-30 05:21:00,
2013-05-29 22:37:00,57.6,49.4,29.68,West,270,1.7,-999.0,74,-99.99,,,0.02,Acu-Link.com,2013-05-30 05:37:00,
2013-05-29 22:52:00,57.2,48.6,29.68,WNW,292,0.0,-999.0,73,-99.99,,,0.02,Acu-Link.com,2013-05-30 05:52:00,
2013-05-29 23:07:00,57.0,48.4,29.67,WSW,247,2.7,-999.0,73,-99.99,,,0.02,Acu-Link.com,2013-05-30 06:07:00,
2013-05-29 23:23:00,56.3,48.1,29.68,NNW,337,0.0,-999.0,74,-99.99,,,0.02,Acu-Link.com,2013-05-30 06:23:00,
2013-05-29 23:53:00,55.6,48.2,29.67,WNW,292,0.0,-999.0,76,-99.99,,,0.02,Acu-Link.com,2013-05-30 06:53:00,